User: anonymous   Login
Location: Brunsen
(51.8651°N, 9.8610°E)
Time: 05:37:28
(UTC+00:00)
Language:

Cosmos 407 Rocket - Orbit

View from above orbital plane
View from above orbital plane
View from above satellite
View from above satellite

Ground track
Ground track

The orbit data is extracted from the following two-line orbital elements,

1 05175U 71035B   24204.23781363  .00000796  00000-0  26635-3 0  9996
2 05175  74.0484 118.0773 0028653  43.0198 317.3189 14.38783541787281
Epoch (UTC): 22 July 2024 05:42:27
Eccentricity: 0.0028653
inclination: 74.0484°
perigee height: 742 km
apogee height: 783 km
right ascension of ascending node: 118.0773°
argument of perigee: 43.0198°
revolutions per day: 14.38783541
mean anomaly at epoch: 317.3189°
orbit number at epoch: 78728

The dashed part of the orbit path shows where the satellite is in the earth's shadow,  

DLR